This demonstration page uses our WeatherBlox Daily Observations layout. Learn more.

Left ArrowRight Arrow

Hourly Observations for November 23, 2022

Temp ( °F °C ) Dew Point ( °F °C ) Humidity (%) Winds ( mph kmh ) Pressure ( in mb ) Visibility ( mi km ) Precip ( " mm )
12:55 am 00:55 Clear 32 0 20 -6.4 62 62 Calm 30.12 1020 10 16 0.00 0.00
1:55 am 01:55 undefined 32 0.1 21 -5.9 64 64 Calm 30.11 1020 10 16 0.00 0.00
2:55 am 02:55 Clear 32 -0.1 23 -4.9 70 70 Calm 30.10 1019 10 16 0.00 0.00
3:55 am 03:55 Clear 31 -0.6 24 -4.7 74 74 Calm 30.09 1019 10 16 0.00 0.00
4:55 am 04:55 Clear 31 -0.7 24 -4.2 77 77 Calm 30.08 1019 10 16 0.00 0.00
5:55 am 05:55 Clear 31 -0.4 27 -2.8 84 84 Calm 30.08 1019 10 16 0.00 0.00
6:55 am 06:55 Clear 31 -0.4 28 -2.1 88 88 ESE 3 6 30.08 1019 10 16 0.00 0.00
7:55 am 07:55 Sunny 32 0 30 -1 93 93 E 3 6 30.08 1019 10 16 0.00 0.00
8:55 am 08:55 Sunny 36 2.1 33 0.8 91 91 ESE 6 9 30.08 1019 10 16 0.00 0.00
9:55 am 09:55 Sunny 44 6.4 36 2.3 75 75 SE 7 11 30.06 1018 10 16 0.00 0.00
10:55 am 10:55 Sunny 48 8.7 37 2.9 67 67 ESE 9 15 30.04 1017 10 16 0.00 0.00
11:55 am 11:55 Sunny 50 10 38 3.5 64 64 SE 10 17 30.01 1016 10 16 0.00 0.00
12:55 pm 12:55 Sunny 54 12.1 39 4.1 58 58 SE 13 20 29.97 1015 10 16 0.00 0.00
1:55 pm 13:55 Sunny 56 13.5 40 4.4 54 54 SSE 15 24 29.96 1015 10 16 0.00 0.00
2:55 pm 14:55 Sunny 57 14 41 5.1 55 55 SSE 9 15 29.94 1014 10 16 0.00 0.00
3:55 pm 15:55 Sunny 58 14.7 40 4.4 50 50 SSE 12 19 29.94 1014 10 16 0.00 0.00
4:55 pm 16:55 Sunny 55 12.6 40 4.3 57 57 SE 12 19 29.95 1014 10 16 0.00 0.00
5:55 pm 17:55 Clear 52 11.3 39 4.1 61 61 SSE 9 15 29.97 1015 10 16 0.00 0.00
6:55 pm 18:55 Clear 49 9.7 39 4.1 68 68 SE 12 19 29.98 1015 10 16 0.00 0.00
7:55 pm 19:55 Clear 45 7 37 2.9 75 75 ESE 7 11 30.01 1016 10 16 0.00 0.00
8:55 pm 20:55 Mostly Clear 46 7.5 38 3.5 76 76 SE 8 13 30.02 1017 10 16 0.00 0.00
9:55 pm 21:55 Cloudy 45 7.2 39 3.8 79 79 ESE 6 9 30.04 1017 10 16 0.00 0.00
10:55 pm 22:55 Cloudy 46 7.7 40 4.3 79 79 SSE 5 7 30.04 1017 10 16 0.00 0.00
11:10 pm 23:10 Cloudy 46 8 39 4 76 76 ESE 5 7 30.04 1017 10 16 0.00 0.00
11:55 pm 23:55 Cloudy 47 8.1 41 5 81 81 S 3 6 30.04 1017 10 16 0.00 0.00

Powered by AerisWeather